Thomson, GA

9:43 AM EDT on April 24, 2018 (GMT -0400)
Thomson-McDuffie County

Weather History for KHQU - October, 2013

Change the Weather History Date:

Sunday, October 6, 2013

  Actual Average (KDNL) Record (KDNL)
Temperature  
Mean Temperature 71 °F -  
Max Temperature 85 °F 76 °F 90 °F (2002)
Min Temperature 57 °F 57 °F 49 °F (2010)
Cooling Degree Days 6    
Growing Degree Days 21 (Base 50)    
Moisture  
Dew Point 65 °F    
Average Humidity 83    
Maximum Humidity 100    
Minimum Humidity 51    
Precipitation  
Precipitation 0.00 in - - ()
Sea Level Pressure  
Sea Level Pressure 30.02 in    
Wind  
Wind Speed 1 mph (SSE)    
Max Wind Speed 10 mph    
Max Gust Speed -    
Visibility 8 miles    
Events      
Averages and records for this station are not official NWS values.
T = Trace of Precipitation, MM = Missing Value Source: NWS Daily Summary

Daily Weather History Graph

Daily Weather History Graph

Search for Another Location

Airport or City:

Astronomy

Oct. 06, 2013 Rise Set
Actual Time 7:28 AM EDT 7:07 PM EDT
Civil Twilight 7:03 AM EDT 7:32 PM EDT
Nautical Twilight 6:34 AM EDT 8:01 PM EDT
Astronomical Twilight 6:05 AM EDT 8:29 PM EDT
Moon 9:04 AM EDT (10/6) 8:13 PM EDT (10/6)
Length of Visible Light 12h 29m
Length of Day
11h 39m
Waxing Crescent, 3% of the Moon is Illuminated
Oct 6
Waxing Crescent
Oct 11
First Quarter
Oct 18
Full
Oct 26
Last Quarter
Nov 3
New

Hourly Weather History & Observations

Time (EDT) Temp. Heat Index Dew Point Humidity Pressure Visibility Wind Dir Wind Speed Gust Speed Precip Events Conditions
12:15 AM 65.3 °F - 65.3 °F 100% 30.10 in 7.0 mi Calm Calm - N/A   Clear
12:35 AM 64.9 °F - 64.9 °F 100% 30.10 in 7.0 mi Calm Calm - N/A   Clear
12:55 AM 64.6 °F - 64.6 °F 100% 30.09 in 5.0 mi Calm Calm - N/A   Clear
1:15 AM 63.7 °F - 63.7 °F 100% 30.08 in 7.0 mi Calm Calm - N/A   Clear
1:35 AM 63.9 °F - 63.9 °F 100% 30.08 in 5.0 mi Calm Calm - N/A   Clear
1:55 AM 63.5 °F - 63.5 °F 100% 30.08 in 5.0 mi Calm Calm - N/A   Clear
2:15 AM 63.5 °F - 63.5 °F 100% 30.08 in 5.0 mi Calm Calm - N/A   Clear
2:35 AM 63.0 °F - 63.0 °F 100% 30.08 in 5.0 mi Calm Calm - N/A   Clear
2:55 AM 62.8 °F - 62.8 °F 100% 30.07 in 3.0 mi Calm Calm - N/A   Clear
3:15 AM 62.6 °F - 62.6 °F 100% 30.07 in 1.8 mi Calm Calm - N/A   Unknown
3:35 AM 61.7 °F - 61.7 °F 100% 30.06 in 2.5 mi Calm Calm - N/A   Clear
3:55 AM 61.3 °F - 61.3 °F 100% 30.06 in 3.0 mi Calm Calm - N/A   Clear
4:15 AM 61.2 °F - 61.2 °F 100% 30.06 in 4.0 mi Calm Calm - N/A   Clear
4:35 AM 60.1 °F - 60.1 °F 100% 30.06 in 1.8 mi Calm Calm - N/A   Unknown
4:55 AM 61.0 °F - 61.0 °F 100% 30.06 in 1.5 mi Calm Calm - N/A   Unknown
5:15 AM 60.6 °F - 60.6 °F 100% 30.05 in 1.8 mi Calm Calm - N/A   Unknown
5:35 AM 59.7 °F - 59.7 °F 100% 30.05 in 7.0 mi Calm Calm - N/A   Clear
5:55 AM 59.2 °F - 59.2 °F 100% 30.06 in 4.0 mi Calm Calm - N/A   Clear
6:15 AM 59.2 °F - 59.2 °F 100% 30.06 in 2.5 mi Calm Calm - N/A   Clear
6:35 AM 58.3 °F - 58.3 °F 100% 30.07 in 0.5 mi Calm Calm - N/A   Mostly Cloudy
6:55 AM 57.9 °F - 57.9 °F 100% 30.07 in 3.0 mi Calm Calm - N/A   Mostly Cloudy
7:15 AM 58.1 °F - 58.1 °F 100% 30.08 in 1.0 mi Calm Calm - N/A   Overcast
7:35 AM 58.1 °F - 58.1 °F 100% 30.08 in 0.2 mi Calm Calm - N/A   Overcast
7:55 AM 58.3 °F - 58.3 °F 100% 30.09 in 1.5 mi Calm Calm - N/A   Overcast
8:15 AM 59.9 °F - 59.9 °F 100% 30.09 in 3.0 mi Calm Calm - N/A   Scattered Clouds
8:35 AM 60.3 °F - 60.3 °F 100% 30.09 in 4.0 mi Calm Calm - N/A   Clear
8:55 AM 62.2 °F - 62.2 °F 100% 30.09 in 5.0 mi Calm Calm - N/A   Clear
9:15 AM 66.0 °F - 66.0 °F 100% 30.09 in 7.0 mi Calm Calm - N/A   Clear
9:35 AM 68.4 °F - 68.0 °F 99% 30.09 in 10.0 mi Calm Calm - N/A   Clear
9:55 AM 70.5 °F - 68.2 °F 92% 30.08 in 10.0 mi Calm Calm - N/A   Clear
10:15 AM 73.0 °F - 68.5 °F 86% 30.08 in 10.0 mi Calm Calm - N/A   Clear
10:35 AM 74.8 °F - 68.4 °F 80% 30.08 in 10.0 mi Calm Calm - N/A   Clear
10:55 AM 76.3 °F - 67.5 °F 74% 30.08 in 10.0 mi Calm Calm - N/A   Clear
11:15 AM 78.1 °F - 66.4 °F 67% 30.08 in 10.0 mi SSE 3.5 mph - N/A   Clear
11:35 AM 80.1 °F 82.4 °F 67.5 °F 65% 30.07 in 10.0 mi Calm Calm - N/A   Clear
11:55 AM 80.2 °F 82.7 °F 67.6 °F 65% 30.07 in 10.0 mi SSE 5.8 mph - N/A   Clear
12:15 PM 80.2 °F 82.7 °F 67.6 °F 65% 30.06 in 10.0 mi ESE 4.6 mph - N/A   Scattered Clouds
12:35 PM 81.7 °F 84.3 °F 67.6 °F 62% 30.06 in 10.0 mi East 9.2 mph - N/A   Scattered Clouds
12:55 PM 81.9 °F 84.1 °F 66.2 °F 59% 30.05 in 10.0 mi ESE 3.5 mph - N/A   Scattered Clouds
1:15 PM 82.8 °F 85.5 °F 67.5 °F 60% 30.04 in 10.0 mi Calm Calm - N/A   Scattered Clouds
1:35 PM 83.7 °F 85.8 °F 66.0 °F 55% 30.03 in 10.0 mi ESE 3.5 mph - N/A   Scattered Clouds
1:55 PM 83.8 °F 85.3 °F 64.8 °F 52% 30.01 in 10.0 mi South 6.9 mph - N/A   Scattered Clouds
2:15 PM 84.0 °F 85.4 °F 64.2 °F 51% 30.00 in 10.0 mi SE 8.1 mph - N/A   Clear
2:35 PM 84.2 °F 85.6 °F 64.2 °F 51% 30.00 in 10.0 mi South 5.8 mph - N/A   Clear
2:55 PM 84.2 °F 85.8 °F 64.8 °F 52% 29.99 in 10.0 mi South 5.8 mph - N/A   Clear
3:15 PM 84.0 °F 86.3 °F 66.2 °F 55% 29.98 in 10.0 mi South 4.6 mph - N/A   Clear
3:35 PM 85.3 °F 87.6 °F 66.6 °F 53% 29.98 in 10.0 mi SE 9.2 mph - N/A   Scattered Clouds
3:55 PM 85.5 °F 87.9 °F 66.4 °F 53% 29.97 in 10.0 mi South 4.6 mph - N/A   Scattered Clouds
4:15 PM 83.5 °F 85.7 °F 66.4 °F 56% 29.96 in 10.0 mi ESE 4.6 mph - N/A   Scattered Clouds
4:35 PM 84.9 °F 87.4 °F 66.6 °F 54% 29.96 in 10.0 mi South 3.5 mph - N/A   Clear
4:55 PM 83.7 °F 86.2 °F 66.9 °F 57% 29.95 in 10.0 mi SSE 3.5 mph - N/A   Clear
5:15 PM 84.2 °F 87.1 °F 67.3 °F 57% 29.95 in 10.0 mi South 4.6 mph - N/A   Clear
5:35 PM 83.7 °F 86.7 °F 68.2 °F 59% 29.94 in 10.0 mi SSE 3.5 mph - N/A   Clear
5:55 PM 82.4 °F 85.4 °F 68.4 °F 62% 29.95 in 10.0 mi SSE 5.8 mph - N/A   Scattered Clouds
6:15 PM 81.0 °F 83.9 °F 68.5 °F 66% 29.94 in 10.0 mi Calm Calm - N/A   Scattered Clouds
6:35 PM 79.0 °F - 69.1 °F 72% 29.95 in 10.0 mi Calm Calm - N/A   Clear
6:55 PM 77.0 °F - 69.1 °F 76% 29.94 in 10.0 mi Calm Calm - N/A   Clear
7:15 PM 75.4 °F - 69.4 °F 82% 29.94 in 10.0 mi Calm Calm - N/A   Clear
7:35 PM 75.2 °F - 69.1 °F 81% 29.94 in 10.0 mi Calm Calm - N/A   Clear
7:55 PM 75.7 °F - 69.1 °F 80% 29.95 in 10.0 mi SE 3.5 mph - N/A   Clear
8:15 PM 74.3 °F - 68.9 °F 83% 29.95 in 10.0 mi Calm Calm - N/A   Scattered Clouds
8:35 PM 75.2 °F - 69.3 °F 82% 29.95 in 10.0 mi SSE 10.4 mph - N/A   Scattered Clouds
8:55 PM 75.2 °F - 69.8 °F 83% 29.95 in 10.0 mi SE 3.5 mph - N/A   Clear
9:15 PM 74.3 °F - 70.2 °F 87% 29.95 in 10.0 mi SE 4.6 mph - N/A   Clear
9:35 PM 73.6 °F - 70.2 °F 89% 29.95 in 10.0 mi Calm Calm - N/A   Scattered Clouds
9:55 PM 73.4 °F - 70.2 °F 90% 29.95 in 10.0 mi Calm Calm - N/A   Mostly Cloudy
10:15 PM 72.7 °F - 70.2 °F 92% 29.94 in 10.0 mi Calm Calm - N/A   Scattered Clouds
10:35 PM 73.2 °F - 70.3 °F 91% 29.95 in 10.0 mi Calm Calm - N/A   Scattered Clouds
10:55 PM 72.9 °F - 70.3 °F 92% 29.94 in 10.0 mi Calm Calm - N/A   Mostly Cloudy
11:15 PM 73.4 °F - 70.7 °F 91% 29.94 in 10.0 mi SSE 4.6 mph - N/A   Scattered Clouds
11:35 PM 73.4 °F - 70.9 °F 92% 29.94 in 10.0 mi SSE 4.6 mph - N/A   Scattered Clouds
11:55 PM 73.4 °F - 71.2 °F 93% 29.93 in 10.0 mi SSE 5.8 mph - N/A   Scattered Clouds